Powrót do katalogu

TACSAT 6

AktywnyMilitariaVLEO
NORAD 39473·PAYLOAD·🇺🇸 United States

Wystrzelony Dec 6, 2013 z Vandenberg Space Force Base

Loading…

Następne Przeloty (najbliższe 24 godziny)

TLE

Starzejące sięSource: Space-Track

Epoka: Sep 13, 2026, 15:10 UTC

1 39473U 13072M   26256.63254080  .00806779  33621-3  12059-2 0  9992
2 39473 120.4450 148.3954 0014963 105.5051 254.7715 16.04123973133327

Śledź TACSAT 6 w czasie rzeczywistym z AllMySat

Download on the App Store